Location: Juiz de Fora
(21.7500°S, 43.3330°W)
Time: 05:14:49
(UTC-03:00)

Hubble Space Telescope - Pass Details

Date: 25 June 2024
Orbit: 510 x 513 km, 28.5° (Epoch: 17 July)

Event Time Altitude Azimuth Distance (km) Brightness Sun altitude
Rises 18:50:38 0° 252° (WSW) 2,624 5.2 -20.3°
Reaches altitude 10° 18:53:04 10° 241° (WSW) 1,739 3.9 -20.9°
Enters shadow 18:56:15 30° 190° (S) 953 1.9 -21.6°
